Location: El Mouella
(16.4949°N, 9.1594°W)
Time: 13:42:19
(UTC+00:00)

Cosmos 2279 Rocket - Pass Details

Date: 02 June 2020
Orbit: 963 x 980 km, 82.9° (Epoch: 04 July)

Event Time Altitude Azimuth Distance (km) Brightness Sun altitude
Rises 21:07:06 0° 4° (N) 3,654 7.4 -26.0°
Reaches altitude 10° 21:09:42 10° 10° (N) 2,704 6.6 -26.5°
Enters shadow 21:14:47 47° 57° (ENE) 1,253 4.3 -27.5°
